Regional Weather Roundup
Issued by NWS Raleigh/Durham, NC

Home | Current Version | Previous Version | Text Only | Print | Product List | Glossary On
Versions: 1 2 3 4 5 6 7 8 9 10 11 12 13 14 15 16 17 18 19 20 21 22 23 24 25 26 27 28 29 30 31 32 33 34 35 36 37 38 39 40 41 42 43 44 45 46 47 48 49 50
000
ASUS42 KRAH 301110
RWRRAH
NORTH CAROLINA WEATHER ROUNDUP
NATIONAL WEATHER SERVICE RALEIGH NC
700 AM EDT TUE MAY 30 2017

NOTE: "FAIR" INDICATES FEW OR NO CLOUDS BELOW 12,000 FEET WITH NO
SIGNIFICANT WEATHER AND/OR OBSTRUCTIONS TO VISIBILITY.

NCZ001-053-055-056-065-067-301200-
WESTERN NORTH CAROLINA

CITY           SKY/WX    TMP DP  RH WIND       PRES   REMARKS
ASHEVILLE      CLOUDY    62  59  90 N10       30.13R
JEFFERSON      PTCLDY    61  56  84 W6        30.14R
HICKORY        FOG       65  65 100 N3        30.08R VSB 1
RUTHERFORDTON  CLOUDY    67  67 100 CALM      30.09R FOG
MOUNT AIRY     CLOUDY    66  63  88 CALM      30.09R FOG
BOONE          MOCLDY    61  57  88 W8        30.15R
$$

NCZ021-022-025-041-071-084-088-301200-
CENTRAL NORTH CAROLINA

CITY           SKY/WX    TMP DP  RH WIND       PRES   REMARKS
CHARLOTTE      CLOUDY    68  65  90 CALM      30.06R
GREENSBORO     CLOUDY    66  66 100 W5        30.06R
WINSTON-SALEM  CLOUDY    68  64  87 S3        30.07R
RALEIGH-DURHAM CLOUDY    69  68  96 CALM      30.06R
FORT BRAGG     PTCLDY    69  67  94 CALM      30.04R
FAYETTEVILLE   PTCLDY    70  68  93 CALM      30.04R
BURLINGTON     LGT RAIN  67  66  97 CALM      30.05R
LAURINBURG     PTCLDY    68  68 100 CALM      30.05R
$$

NCZ011-015-027-028-043-044-047-080-103-301200-
NORTHEASTERN NORTH CAROLINA

CITY           SKY/WX    TMP DP  RH WIND       PRES   REMARKS
ROCKY MT-WILSO CLOUDY    69  69 100 CALM      30.05R
GREENVILLE     CLOUDY    70  70 100 CALM      30.06R
WASHINGTON     PTSUNNY   69  67  93 CALM      30.05R
ELIZABETH CITY CLOUDY    71  69  93 S6        30.05R
MANTEO         RAIN      72  70  93 SW12      30.05R
CAPE HATTERAS  PTSUNNY   71  68  90 S5        30.07R
$$

NCZ078-087-090-091-093-098-101-301200-
SOUTHEASTERN NORTH CAROLINA

CITY           SKY/WX    TMP DP  RH WIND       PRES   REMARKS
LUMBERTON      PTCLDY    68  68 100 CALM      30.05R
GOLDSBORO      PTSUNNY   70  70 100 CALM      30.03R
KINSTON        MOSUNNY   70  68  94 S5        30.05R
KENANSVILLE    CLOUDY    70  68  94 CALM      30.05R FOG
NEW BERN       PTSUNNY   69  69 100 S5        30.07R
CHERRY POINT   NOT AVBL
BEAUFORT       LGT RAIN  72  67  84 S7        30.05F
JACKSONVILLE   TSTM      70  69  97 S6        30.05R
WILMINGTON     PTSUNNY   71  70  96 E3        30.05S
$$




USA.gov is the U.S. government's official web portal to all federal, state and local government web resources and services.